Location: Owatonna
(44.0840°N, 93.2260°W)
Time: 19:12:36
(UTC-05:00)

Daily predictions for brighter satellites

Satellite Brightness Start Highest point End
(mag) Time Altitude Azimuth Time Altitude Azimuth Time Altitude Azimuth
Meteor 2-15 4.4 20:11:08 10° N 20:17:13 77° E 20:23:16 10° SSE
Cosmos 1697 Rocket 3.7 20:14:24 10° SSE 20:18:52 25° ESE 20:23:20 10° NE
Cosmos 2208 Rocket 4.1 20:15:01 10° SSW 20:20:19 74° ESE 20:25:44 10° NNE
EP 1 4.1 20:18:32 10° SSW 20:21:05 69° SE 20:23:45 10° NE
METEOR-M 4.5 20:16:14 10° S 20:21:34 74° WSW 20:26:56 10° NNW
Iridium 4 Rocket 4.2 20:18:12 10° NNE 20:22:39 30° ENE 20:26:44 10° SE
H-2A R/B 4.1 20:22:38 10° ENE 20:23:40 11° ENE 20:24:42 10° NE
Meteor 2-15 Rocket 4.4 20:17:44 10° N 20:23:50 74° E 20:29:53 10° SSE
Meteor 2-14 Rocket 4.5 20:17:43 10° S 20:23:51 81° E 20:30:01 10° N
Cosmos 1626 Rocket 4.1 20:19:48 10° N 20:23:58 39° ENE 20:28:03 10° SE
BREEZE-M DEB (TANK) 4.3 20:20:47 10° SSW 20:24:36 49° SE 20:36:50 10° ENE
Cosmos 1892 Rocket 4.0 20:20:49 10° NNW 20:25:19 71° W 20:29:46 10° S
Envisat 4.4 20:24:21 10° ESE 20:28:07 21° ENE 20:31:53 10° NNE
Cosmos 2278 3.7 20:22:57 10° SSW 20:28:37 78° ESE 20:34:20 10° NNE
Cosmos 2084 3.7 20:24:42 10° NNW 20:28:39 52° NE 20:32:48 10° SE
Cosmos 1455 Rocket 3.0 20:25:39 10° S 20:29:58 78° E 20:34:21 10° N
Cosmos 1570 Rocket 4.2 20:28:08 10° SSW 20:33:26 80° WNW 20:38:44 10° NNE
Cosmos 1602 Rocket 3.8 20:29:26 10° N 20:33:48 50° ENE 20:38:05 10° SSE
Cosmos 220 Rocket 3.9 20:33:34 10° NNW 20:37:49 69° ENE 20:41:59 10° SSE
Lacrosse 5 2.1 20:35:15 10° NW 20:40:16 58° NE 20:44:53 12° ESE
Cosmos 2123 Rocket 4.1 20:35:24 10° N 20:41:36 87° W 20:47:47 10° S
H-2A R/B 2.7 20:37:51 10° SSE 20:41:44 75° ENE 20:45:41 10° N
Cosmos 1980 Rocket 3.2 20:38:02 10° SSE 20:42:25 23° E 20:46:49 10° NE
Cosmos 2369 3.7 20:37:28 10° SSW 20:43:08 89° ESE 20:48:53 10° NNE
EO 1 Delta rocket 3.9 20:43:03 10° NNE 20:47:47 75° E 20:53:13 10° S
Cosmos 1975 2.8 20:46:05 10° S 20:50:09 64° E 20:54:14 10° NNE
Cosmos 2150 Rocket 4.1 20:46:21 10° NNW 20:51:28 59° ENE 20:56:30 10° SE
SPOT 5 4.3 20:49:21 13° ESE 20:52:19 21° ENE 20:55:52 10° NNE
ERS-1 Rocket 3.4 20:48:26 10° SE 20:53:09 43° ENE 20:57:54 10° N
Lacrosse 5 rocket 2.4 20:50:56 10° WNW 20:54:21 35° SW 20:57:40 10° SSE
BREEZE-M TANK 3.7 20:39:37 10° WNW 20:54:51 86° SSW 20:58:04 16° ESE
FENGYUN 3A 4.0 20:54:19 10° S 20:59:37 68° WSW 21:04:59 10° NNW
Cosmos 1656 3.6 20:56:41 10° SSW 21:02:17 74° ESE 21:07:50 10° NNE
CZ-2D R/B 4.1 21:00:24 10° S 21:04:10 52° W 21:08:00 10° NNW
Cosmos 1763 Rocket 4.3 21:00:42 10° SSE 21:04:58 28° E 21:09:14 10° NE
SJ-11-01 4.4 21:01:22 11° SSE 21:05:47 59° ENE 21:10:24 10° N
Cosmos 2263 Rocket 4.2 21:03:06 10° N 21:06:04 14° NE 21:09:01 10° ENE
Cosmos 1898 Rocket 3.5 21:02:14 10° NNW 21:07:35 85° ENE 21:12:34 11° SSE
Resurs 01 Rocket 4.1 21:04:38 10° SW 21:08:06 22° W 21:11:36 10° NW
Cosmos 1606 Rocket 4.5 21:06:33 18° SE 21:08:46 28° E 21:12:34 10° NNE
CZ-4 DEB 2.7 21:07:23 20° SSE 21:09:24 60° ENE 21:12:31 10° N
DELTA 2 R/B (1) 4.5 21:04:25 10° W 21:09:31 37° SSW 21:13:06 18° SE
Cosmos 2227 Rocket 3.5 21:05:10 10° NW 21:10:24 40° WSW 21:15:36 10° S
Cosmos 1500 3.0 21:07:32 10° S 21:11:16 71° E 21:15:03 10° NNE
Cosmos 1153 Rocket 4.5 21:07:50 10° S 21:14:02 89° ESE 21:20:14 10° N
Cosmos 2322 Rocket 3.7 21:16:55 16° E 21:16:55 16° E 21:19:29 10° ENE
YAOGAN 6 4.1 21:16:13 20° E 21:16:48 21° ENE 21:19:37 10° NNE
Cosmos 1340 3.2 21:15:23 10° N 21:19:01 40° ENE 21:20:21 29° ESE
OAO 2 Rocket 4.4 21:16:34 10° WSW 21:20:53 29° S 21:22:50 22° SE
Cosmos 468 Rocket 3.9 21:17:14 10° SSW 21:22:21 82° ESE 21:27:31 10° NNE
USA 215 4.3 21:18:44 11° E 21:24:23 36° NNE 21:30:12 10° NW
Meteor 1-21 4.4 21:19:41 10° N 21:25:23 56° ENE 21:29:02 22° SSE
Cosmos 2297 Rocket 3.3 21:20:13 10° NW 21:25:30 41° WSW 21:30:46 10° S
ALOS 4.0 21:23:15 10° SSW 21:27:25 32° W 21:31:36 10° NNW
Cosmos 1939 Rocket 2.9 21:25:01 23° SSE 21:27:34 74° ENE 21:31:45 10° N
USA 186 3.8 21:25:14 10° SSW 21:27:47 24° W 21:30:13 10° NW
Cosmos 841 Rocket 3.9 21:23:28 10° S 21:28:19 40° ESE 21:33:10 10° NE
Cosmos 1802 Rocket 4.1 21:24:02 10° S 21:30:19 62° E 21:36:40 10° NNE
Cosmos 1726 Rocket 4.0 21:30:18 31° SE 21:31:44 41° E 21:35:53 10° NNE
Cosmos 1814 Rocket 4.0 21:28:41 10° SSW 21:34:01 87° ESE 21:39:22 10° NNE
Cosmos 2227 4.3 21:28:48 10° NNW 21:34:32 64° ENE 21:37:26 29° SE
MetOp-A 4.4 21:33:48 29° SE 21:36:14 49° ENE 21:41:23 10° N
Cosmos 2016 Rocket 4.0 21:35:00 13° S 21:40:27 61° E 21:46:34 10° NNE
ASTEX 1 3.6 21:39:04 10° NNE 21:43:56 50° E 21:45:36 36° SE
Cosmos 1825 Rocket 3.5 21:40:11 10° N 21:44:38 86° W 21:46:51 29° S
Cosmos 1743 2.9 21:48:12 17° SSW 21:51:10 70° W 21:55:06 10° N
Tiangong 1 2.2 21:48:27 10° W 21:50:47 32° SW 21:50:47 32° SW
Cosmos 2173 Rocket 4.1 21:46:18 10° S 21:52:39 81° W 21:59:01 10° N
BREEZE-M DEB (TANK) 1.9 21:50:44 10° WNW 21:53:04 86° SSW 21:53:28 66° SE
RESURS DK-1 3.3 21:49:52 10° NW 21:53:48 43° WSW 21:55:34 27° SSW
Cosmos 1953 Rocket 3.5 21:51:08 10° N 21:55:37 89° W 21:57:08 42° S
H-2A R/B 1.9 21:57:54 47° S 21:59:02 79° WSW 22:03:13 10° NNW
Cosmos 1697 Rocket 3.5 21:56:58 10° SW 22:02:28 52° WNW 22:08:00 10° NNE
SL-08 RB Rocket 4.2 22:05:54 42° ENE 22:06:01 42° ENE 22:10:23 10° N
Cosmos 2228 3.4 22:07:20 45° ENE 22:07:20 45° ENE 22:10:47 10° NNE
Envisat 3.6 22:03:38 22° S 22:06:44 53° W 22:11:44 10° NNW
Nimbus 7 Rocket 4.4 22:02:35 10° NNE 22:08:42 89° ESE 22:14:14 13° SSW
Cosmos 1864 Rocket 4.4 22:06:14 36° SSE 22:08:45 67° E 22:14:50 10° NNE
SL-16 R/B 2.5 22:13:10 45° E 22:13:10 45° E 22:18:07 10° NE
Cosmos 1758 Rocket 3.8 22:09:52 10° NNW 22:14:12 66° W 22:15:05 51° SSW
NOAA 11 4.2 22:13:22 53° SE 22:14:28 65° ENE 22:19:53 10° N
Tsikada Rocket 3.9 22:10:37 10° N 22:17:05 81° E 22:19:18 44° SSE
ARGOS 3.1 22:16:23 56° ESE 22:17:18 68° ENE 22:22:41 10° N
deb Chang Zheng 4 4.1 22:15:12 10° N 22:19:36 61° WNW 22:21:50 27° SW
CZ-4B R/B 3.9 22:16:26 10° NNE 22:20:03 42° ENE 22:20:03 42° ENE
SL-19 R/B 4.0 22:15:39 10° NNE 22:21:06 68° ESE 22:21:42 62° SE
Cosmos 1842 3.5 22:17:35 10° NNW 22:21:25 63° W 22:21:25 63° W
Lacrosse 5 3.2 22:18:40 10° WNW 22:22:57 28° SW 22:24:05 26° SSW
Cosmos 1980 Rocket 2.9 22:20:27 10° SW 22:26:00 55° WNW 22:31:37 10° NNE
Cosmos 2360 Rocket 4.2 22:30:08 14° ENE 22:30:08 14° ENE 22:31:10 10° NE
H-2A R/B 2.5 22:27:29 42° ENE 22:27:29 42° ENE 22:31:48 10° N
MetOp-B 4.4 22:28:11 43° SSW 22:29:47 61° W 22:35:06 10° NNW
SPOT 5 3.6 22:28:37 38° SSW 22:30:05 50° W 22:34:45 10° NNW
Cosmos 1666 3.7 22:35:55 43° WNW 22:35:55 43° WNW 22:39:26 10° N
Cosmos 1816 Rocket 4.4 22:29:48 10° N 22:36:13 89° E 22:37:39 57° S
Meteor 2-17 Rocket 4.3 22:36:21 66° SE 22:37:04 74° E 22:43:07 10° NNE
BREEZE-M DEB (TANK) 4.0 22:24:51 10° SW 22:37:09 63° SSE 22:37:37 61° SE
Landsat 7 4.1 22:39:00 56° NE 22:39:00 56° NE 22:43:07 10° N
Cosmos 1725 Rocket 4.2 22:37:55 32° SSW 22:40:54 70° W 22:47:09 10° N
Cosmos 2058 Rocket 4.0 22:41:00 39° WSW 22:42:02 46° WNW 22:46:24 10° N
SPOT 1/Viking Rocket 3.7 22:45:55 60° SW 22:46:25 63° WSW 22:51:37 10° NNW
Cosmos 2098 Rocket 4.5 22:41:42 19° SSW 22:46:29 56° W 22:52:00 10° N
Cosmos 2263 Rocket 2.1 22:45:26 10° NNW 22:50:51 73° NE 22:50:51 73° NE
Terra 2.5 22:54:47 48° NNE 22:54:47 48° NNE 22:58:25 10° N
Meteor 2-5 Rocket 3.7 22:49:49 10° N 22:55:38 77° ENE 22:55:38 77° ENE
Cosmos 1125 Rocket 4.0 22:50:48 10° NNW 22:55:49 50° WSW 22:55:59 49° WSW
Cosmos 2322 Rocket 2.3 22:58:39 63° WSW 22:59:24 72° WNW 23:05:03 10° NNE
CZ-4 R/B 4.4 22:55:13 10° NNE 22:58:49 52° N 22:58:49 52° N
Cosmos 2233 Rocket 4.0 23:03:44 63° SW 23:04:38 74° W 23:10:54 10° N
USA 215 3.2 23:06:05 69° E 23:06:51 77° NE 23:13:24 10° NW
Meteor 1-24 Rocket 4.2 23:04:50 10° N 23:10:08 57° NE 23:10:08 57° NE
Cosmos 540 Rocket 4.2 23:22:19 50° NW 23:22:19 50° NW 23:26:54 10° NNE
ATLAS CENTAUR R/B 4.4 23:29:28 53° ESE 23:29:28 53° ESE 23:49:42 10° NE
Cosmos 2278 Rocket 3.9 23:36:14 10° N 23:40:20 24° NE 23:40:20 24° NE
Cosmos 1464 Rocket 4.3 23:51:41 64° NW 23:51:41 64° NW 23:57:19 10° N
